Location: Beranov
(50.0007°N, 12.8986°E)
Time: 06:28:33
(UTC+00:00)

Daily predictions for brighter satellites

Satellite Brightness Start Highest point End
(mag) Time Altitude Azimuth Time Altitude Azimuth Time Altitude Azimuth
Cosmos 1697 Rocket 3.0 19:09:41 10° NNW 19:15:14 57° NE 19:20:45 10° SE
MetOp-A 4.4 19:10:40 10° S 19:16:00 73° WSW 19:21:23 10° NNW
Cosmos 2228 Rocket 3.2 19:12:17 10° NNW 19:16:45 84° W 19:21:09 10° S
Cosmos 1833 Rocket 3.3 19:12:29 10° S 19:17:28 34° ESE 19:22:30 10° NE
Cosmos 389 Rocket 2.4 19:16:23 10° N 19:19:49 68° ENE 19:23:14 10° SSE
Cosmos 1812 2.8 19:17:52 10° N 19:21:42 60° ENE 19:25:30 10° SSE
Cosmos 1727 Rocket 4.2 19:15:21 10° N 19:21:44 83° W 19:28:06 10° S
SPOT 3 Rocket 3.6 19:16:57 10° SSE 19:22:10 89° WSW 19:27:25 10° NNW
Cosmos 1633 Rocket 4.3 19:19:10 10° SE 19:22:42 24° E 19:26:15 10° NE
Cosmos 2251 Rocket 3.6 19:19:06 10° SSW 19:24:22 85° WNW 19:29:42 10° NNE
Cosmos 1656 3.8 19:21:22 10° NNW 19:26:51 75° WSW 19:32:21 10° SSE
Cosmos 1707 Rocket 3.8 19:26:52 10° N 19:31:09 52° ENE 19:35:22 10° SSE
Cosmos 220 Rocket 3.9 19:27:10 10° NNW 19:31:25 89° ENE 19:35:38 10° SSE
Cosmos 1633 4.4 19:28:41 10° SW 19:31:56 34° WNW 19:35:12 10° N
IRIDIUM 104 4.3 19:27:17 10° S 19:32:29 76° E 19:37:43 10° N
Resurs 01 Rocket 1.6 19:28:51 10° SSE 19:33:16 85° ENE 19:37:44 10° NNW
Landsat 7 4.3 19:30:18 10° SE 19:34:49 45° ENE 19:39:22 10° N
Cosmos 1441 Rocket 3.1 19:35:18 10° S 19:39:04 65° E 19:42:48 10° NNE
Cosmos 1934 Rocket 4.5 19:33:58 10° SSE 19:39:55 44° E 19:45:54 10° NNE
IRIDIUM 114 4.4 19:36:25 10° S 19:41:38 89° E 19:46:53 10° N
Cosmos 2360 4.3 19:36:30 10° NNW 19:42:16 69° ENE 19:47:32 12° SE
Cosmos 614 Rocket 4.0 19:37:44 10° S 19:42:50 65° ESE 19:48:00 10° NNE
IGS 5A 3.7 19:41:07 11° SE 19:44:55 51° ENE 19:48:58 10° N
Cosmos 1900 4.4 19:41:18 10° SW 19:46:15 86° NW 19:51:21 10° NE
USA 267 3.3 19:40:36 10° ENE 19:47:04 59° SE 19:53:30 10° SW
GP-B 3.7 19:45:22 10° NNE 19:49:35 40° E 19:53:14 13° SSE
Cosmos 1821 Rocket 4.0 19:46:54 10° S 19:53:02 84° E 19:59:18 10° N
Cosmos 921 Rocket 4.0 19:51:24 10° N 19:55:15 32° ENE 19:58:03 16° ESE
COSMOS 2406 3.2 19:49:31 10° SSW 19:55:16 86° ESE 20:01:03 10° NNE
Shenzhou-11 Module 3.6 19:54:01 10° SW 19:55:17 13° S 19:55:30 13° S
CZ-2C R/B 4.1 19:50:46 10° N 19:55:24 69° WNW 19:59:56 10° SSW
Intercosmos 25 3.9 19:52:52 10° NNW 19:57:37 62° W 20:01:00 10° S
Cosmos 1862 Rocket 3.9 19:53:18 10° N 19:57:41 49° ENE 20:01:00 16° SSE
SL-16 R/B 3.6 19:52:57 10° NNW 19:57:47 28° NE 20:02:26 11° E
ERS-1 Rocket 3.5 19:56:08 15° SE 20:00:00 44° ENE 20:04:46 10° N
Lacrosse 5 2.7 19:56:23 10° WNW 20:01:19 47° NNE 20:06:13 10° E
Cosmos 2369 3.8 19:57:19 10° NNW 20:03:05 77° WSW 20:08:05 14° SSE
Cosmos 1862 4.3 20:00:28 10° SSW 20:04:24 50° WNW 20:08:23 10° N
Sich 1 3.2 20:00:50 10° SSW 20:05:16 79° WNW 20:09:45 10° N
Cosmos 1818 4.1 20:02:34 10° NW 20:07:52 52° WSW 20:12:24 14° SSE
BREEZE-M DEB (TANK) 1.4 20:06:15 10° W 20:09:00 76° S 20:09:54 27° E
Cosmos 2082 Rocket 2.4 20:04:55 10° S 20:10:25 52° ESE 20:15:55 10° NE
Cosmos 1954 Rocket 4.4 20:07:13 10° S 20:12:13 43° ESE 20:17:14 10° NE
Cosmos 2123 Rocket 4.0 20:06:05 10° N 20:12:20 85° E 20:18:06 12° S
Cosmos 2278 3.7 20:06:37 10° NNW 20:12:23 88° ENE 20:16:44 18° SSE
Spot 2 Rocket 3.6 20:11:25 13° SSE 20:15:58 82° WSW 20:21:07 10° NNW
Cosmos 1535 Rocket 4.4 20:10:02 10° S 20:16:09 74° E 20:22:16 10° NNE
Meteor 1-4 Rocket 2.6 20:16:37 10° NNW 20:20:06 69° W 20:22:26 19° S
Cosmos 2322 Rocket 3.4 20:15:16 10° NNW 20:20:21 32° NE 20:24:25 15° ESE
CARTOSAT-1 3.6 20:20:05 22° SSE 20:22:46 64° ENE 20:27:05 10° N
Cosmos 1184 Rocket 2.8 20:21:01 24° S 20:22:48 57° E 20:26:04 10° NNE
Cosmos 1190 Rocket 4.0 20:17:53 10° SSW 20:23:10 83° ESE 20:28:31 10° NNE
USA 234 3.3 20:18:46 18° SE 20:23:45 73° SW 20:30:19 10° WNW
Terra 2.3 20:21:08 21° SE 20:23:55 45° ENE 20:28:28 10° N
Cosmos 407 Rocket 3.7 20:20:48 10° SSW 20:26:08 80° WNW 20:31:28 10° NNE
Cosmos 1933 Rocket 4.1 20:24:16 24° SSE 20:26:26 40° E 20:30:36 10° NNE
Cosmos 1605 Rocket 4.0 20:21:08 13° S 20:26:29 61° E 20:32:29 10° NNE
Cosmos 1666 Rocket 3.8 20:22:34 10° SSW 20:26:52 70° WNW 20:31:13 10° N
Meteor 1-20 Rocket 4.4 20:23:25 14° S 20:28:18 59° E 20:34:04 10° NNE
Cosmos 1238 Rocket 2.5 20:28:02 35° SE 20:28:42 42° E 20:31:31 10° NNE
Okean 1 3.7 20:25:45 10° N 20:29:40 48° ENE 20:31:27 28° SE
Cosmos 1602 4.3 20:31:37 29° SE 20:33:00 40° E 20:36:42 10° NNE
ATLAS 3B R/B 4.4 20:34:00 11° E 20:34:00 11° E 20:35:15 10° E
Cosmos 1437 Rocket 3.5 20:30:37 10° N 20:34:11 36° ENE 20:35:27 28° ESE
Cosmos 2360 Rocket 3.8 20:29:43 10° NNW 20:34:23 25° NE 20:38:35 12° E
CZ-4B DEB 4.3 20:35:36 31° S 20:37:06 81° WSW 20:40:27 10° NNW
SPOT 5 2.5 20:35:54 27° SSE 20:38:15 78° ENE 20:42:38 10° NNW
ERBS 4.3 20:35:40 10° W 20:38:39 30° NNW 20:41:37 10° NE
USA 238 DEB 3.8 20:32:52 10° SSW 20:39:10 48° ESE 20:45:44 10° NE
Meteor 1-19 Rocket 4.3 20:33:51 10° N 20:39:13 60° ENE 20:42:13 26° SE
USA 238 3.8 20:33:00 10° SSW 20:39:17 48° ESE 20:45:50 10° NE
Iridium 4 Rocket 4.4 20:41:58 22° ESE 20:42:58 24° E 20:46:24 10° NNE
Cosmos 1980 Rocket 2.5 20:37:53 10° NW 20:43:31 63° WSW 20:47:05 22° S
SPOT 1/Viking Rocket 4.0 20:39:53 17° S 20:43:55 59° W 20:49:06 10° NNW
Cosmos 1703 Rocket 3.8 20:41:04 10° N 20:45:23 55° ENE 20:47:06 32° SE
Cosmos 2242 Rocket 3.5 20:40:57 10° N 20:45:25 74° E 20:47:29 31° SSE
Cosmos 1763 Rocket 3.7 20:43:09 10° NNW 20:48:28 61° ENE 20:51:08 29° SE
SL-4 R/B 1.7 20:45:26 10° SW 20:49:14 59° SSE 20:51:35 20° E
Genesis I 3.7 20:45:36 10° NW 20:49:21 49° SW 20:50:44 32° S
BREEZE-M DEB (TANK) 2.8 20:46:52 10° W 20:49:56 85° S 20:59:14 10° E
Cosmos 1500 4.5 20:50:18 24° E 20:50:19 24° E 20:53:23 10° NE
Cosmos 405 Rocket 2.6 20:49:21 38° SSE 20:50:34 64° E 20:54:16 10° NNE
Cosmos 1140 Rocket 3.9 20:46:38 10° SW 20:51:50 64° WNW 20:57:05 10° NNE
ATLAS 5 CENTAUR R/B 4.3 20:47:55 10° WNW 20:52:02 20° WSW 20:56:32 10° SSW
Cosmos 2333 Rocket 4.3 20:50:09 10° N 20:54:14 19° NE 20:58:18 10° E
FAST 4.2 20:51:42 10° N 20:54:33 75° E 20:54:41 72° ESE
USA 32 4.3 20:53:02 14° SSW 20:57:34 68° W 21:02:48 10° N
Cosmos 1697 Rocket 4.2 20:54:11 10° NW 20:58:52 28° WSW 21:03:04 12° SSW
Cosmos 1633 Rocket 4.3 20:56:06 10° SW 21:00:17 40° WNW 21:04:29 10° N
Cosmos 1459 Rocket 4.5 20:58:05 28° SE 21:00:53 44° E 21:06:52 10° NNE
Cosmos 1833 Rocket 3.7 20:55:50 10° SW 21:01:15 48° NW 21:06:43 10° NNE
Meteor 1-18 Rocket 4.2 21:01:14 10° NNW 21:06:51 78° W 21:09:50 29° S
Okean 1-7 2.9 21:02:43 10° N 21:07:05 81° ENE 21:08:30 42° SSE
Cosmos 1153 Rocket 4.4 21:03:26 24° S 21:07:20 79° E 21:13:32 10° NNE
Cosmos 1867 3.5 21:02:10 10° SW 21:07:37 90° NW 21:13:07 10° NE
CENTAUR R/B 2.8 21:04:46 27° S 21:07:41 45° ESE 21:14:17 10° NE
Resurs 01 Rocket 4.3 21:08:29 10° WSW 21:10:23 12° W 21:12:17 10° WNW
Okean 3 4.2 21:09:01 10° N 21:13:05 40° ENE 21:13:59 35° ESE
FALCON 9 DEB 3.0 21:11:26 10° WSW 21:14:55 74° SSE 21:15:22 62° E
Cosmos 1802 Rocket 4.4 21:13:52 32° SE 21:16:26 47° E 21:22:29 10° NNE
Cosmos 1850 Rocket 4.1 21:14:18 34° S 21:16:27 60° ESE 21:21:39 10° NNE
Meteor 2-4 Rocket 3.7 21:10:50 10° N 21:16:35 74° ENE 21:18:53 37° SSE
Cosmos 1515 3.7 21:13:39 10° NNW 21:17:29 73° W 21:18:22 50° SSW
SL-27 R/B 3.7 21:19:37 28° ENE 21:19:37 28° ENE 21:21:39 10° NE
Cosmos 44 3.6 21:16:18 10° NW 21:21:06 60° NE 21:23:08 34° ESE
ATLAS 5 CENTAUR R/B 2.2 21:18:49 10° NW 21:21:23 60° NE 21:23:25 31° ESE
SWARM A 4.4 21:19:14 10° N 21:22:33 63° W 21:22:57 56° SW
Spot 4 4.3 21:27:26 37° ESE 21:28:49 48° ENE 21:33:27 10° N
USA 267 3.6 21:23:42 10° ENE 21:30:11 66° NNW 21:36:39 10° W
Cosmos 921 Rocket 4.4 21:29:47 10° NW 21:33:29 29° W 21:34:51 24° SW
NOSS 3-2 (A) 3.4 21:27:54 10° SW 21:33:43 87° NW 21:40:27 10° NE
ERS-1 Rocket 4.4 21:36:09 18° SW 21:38:57 29° W 21:43:19 10° NW
NOSS 3-2 (C) 3.3 21:35:51 23° SSW 21:39:35 71° SE 21:46:11 10° NE
Cosmos 841 Rocket 3.4 21:35:13 10° NNW 21:40:29 85° ENE 21:42:00 48° SSE
Cosmos 540 Rocket 3.4 21:36:43 10° NNW 21:41:55 85° ENE 21:43:22 49° SSE
SL-16 R/B 2.3 21:36:46 10° NNW 21:42:26 70° WSW 21:44:17 43° S
Lacrosse 5 1.9 21:39:27 10° WNW 21:44:30 66° SW 21:45:31 52° SSE
Cosmos 1741 Rocket 4.0 21:48:23 32° SSW 21:50:53 79° WNW 21:56:12 10° NNE
Cosmos 1570 Rocket 4.0 21:46:25 10° NNW 21:51:45 77° WSW 21:53:10 50° S
Tsikada Rocket 4.2 21:46:21 10° N 21:52:43 64° ENE 21:54:55 41° SE
Cosmos 2219 Rocket 3.5 21:48:24 10° NNW 21:53:34 34° NE 21:56:38 20° E
Cosmos 2208 Rocket 3.9 21:48:33 10° NNW 21:53:53 87° WSW 21:55:11 53° SSE
Cosmos 1814 Rocket 3.9 21:49:01 10° NNW 21:54:15 90° SSW 21:55:32 53° SSE
Cosmos 2082 Rocket 3.8 21:49:33 10° WSW 21:54:44 35° NW 21:59:55 10° NNE
Cosmos 2084 Rocket 3.8 21:59:01 48° E 21:59:01 48° E 22:02:28 10° NE
Cosmos 2237 4.2 21:53:07 10° NNW 21:58:53 83° ENE 22:00:35 48° SE
Terra 3.4 22:00:02 21° SW 22:01:52 26° W 22:05:52 10° NW
Cosmos 2322 Rocket 2.4 21:59:09 10° NW 22:04:45 58° WSW 22:06:13 45° SSW
EO 1 Del DPAF 3.8 22:01:49 10° NNE 22:04:57 47° ENE 22:04:57 47° ENE
USA 234 4.5 22:06:06 23° SW 22:07:31 24° SW 22:12:41 10° WNW
Cosmos 2100 Rocket 4.3 22:05:35 29° SSW 22:08:44 61° WNW 22:14:50 10° N
Meteor 1-11 Rocket 3.6 22:09:09 50° S 22:10:41 81° E 22:16:28 10° NNE
Cosmos 1242 Rocket 2.9 22:08:57 10° N 22:12:07 59° NNE 22:12:07 59° NNE
Helios 1A 4.3 22:13:11 27° E 22:13:50 28° ENE 22:17:28 10° N
Cosmos 1869 Rocket 4.5 22:13:01 33° WSW 22:14:22 43° WNW 22:18:39 10° N
Cosmos 2360 Rocket 2.1 22:13:21 10° NNW 22:19:02 79° WSW 22:20:19 55° S
COSMOS 2428 3.5 22:14:36 10° NNW 22:20:06 44° NE 22:22:36 28° ESE
ATLAS 3B R/B 2.7 22:21:13 47° SSE 22:22:39 56° ESE 22:29:08 10° NE
Iridium 4 Rocket 4.2 22:21:45 31° WSW 22:22:48 36° W 22:26:45 10° NNW
ALOS 2 2.4 22:27:44 80° SE 22:27:58 86° ENE 22:32:23 10° NNW
SL-4 R/B 3.1 22:25:08 10° W 22:27:12 30° W 22:27:12 30° W
Cosmos 1725 Rocket 4.0 22:27:19 43° SSW 22:29:33 79° W 22:35:55 10° N
USA 238 DEB 4.4 22:23:35 10° WSW 22:30:08 53° NW 22:36:59 10° NE
USA 238 4.4 22:23:41 10° WSW 22:30:13 53° NW 22:37:06 10° NE
Nimbus 7 Rocket 4.4 22:25:04 10° NNE 22:30:56 69° ESE 22:32:14 53° SSE
Cosmos 1674 Rocket 3.4 22:28:49 10° NNW 22:33:10 84° W 22:33:13 83° WSW
Cosmos 1536 3.0 22:34:39 63° WNW 22:34:39 63° WNW 22:38:35 10° N
Cosmos 1666 3.4 22:37:32 45° WNW 22:37:32 45° WNW 22:41:04 10° N
Cosmos 1743 3.4 22:38:17 48° ENE 22:38:17 48° ENE 22:41:30 10° NNE
Cosmos 2333 Rocket 2.4 22:33:50 10° NNW 22:39:38 69° ENE 22:41:19 46° SE
Cosmos 1271 Rocket 3.0 22:37:29 10° N 22:40:47 61° NNE 22:40:47 61° NNE
Cosmos 2016 Rocket 4.5 22:39:51 33° SW 22:42:34 55° WNW 22:48:51 10° N
Cosmos 2237 Rocket 3.7 22:38:42 10° NNW 22:43:41 31° NE 22:47:33 15° E
Cosmos 2061 Rocket 4.5 22:41:23 33° SW 22:43:58 54° WNW 22:50:04 10° N
MOS 1-B Rocket 4.5 22:38:38 10° N 22:44:09 49° WNW 22:46:43 29° WSW
Lacrosse 4 Rocket 2.3 22:45:23 39° ENE 22:45:23 39° ENE 22:48:27 10° NE
Cosmos 1733 Rocket 3.5 22:50:59 50° W 22:51:22 52° WNW 22:55:43 10° N
Meteor 2-11 Rocket 4.4 22:51:23 54° SSE 22:52:47 75° E 22:58:53 10° NNE
Thor Agena Rocket 4.1 22:50:33 10° N 22:55:26 50° WNW 22:57:00 37° WSW
Cosmos 44 Rocket 3.7 22:51:08 10° NW 22:56:03 59° NE 22:57:31 42° ESE
Cosmos 836 Rocket 4.3 22:52:11 10° NNW 22:57:26 85° WSW 22:58:03 69° S
CENTAUR R/B 3.3 22:52:07 10° WSW 22:58:16 55° NW 23:05:34 10° NE
Cosmos 968 Rocket 3.4 22:59:01 62° SE 22:59:17 64° ESE 23:04:22 10° NNE
Cosmos 1975 3.5 23:02:22 46° ENE 23:02:22 46° ENE 23:05:46 10° NNE
SL-24 DEB 4.1 23:00:10 10° N 23:04:59 87° E 23:05:18 78° S
Cosmos 1354 Rocket 4.5 23:07:09 45° ESE 23:07:27 46° ESE 23:12:33 10° NE
Cosmos 1782 Rocket 3.8 23:10:37 57° E 23:10:37 57° E 23:14:43 10° NNE
USA 267 4.2 23:06:30 10° ENE 23:12:44 49° N 23:18:58 10° WNW
Cosmos 1378 4.4 23:09:42 10° NNW 23:12:29 34° WNW 23:12:29 34° WNW
Cosmos 1707 4.0 23:12:35 10° N 23:16:11 34° ENE 23:16:13 34° ENE
Cosmos 2233 Rocket 4.4 23:14:31 39° SW 23:16:39 56° WNW 23:22:53 10° N
Cosmos 1464 Rocket 4.1 23:15:36 49° SSE 23:17:08 65° E 23:23:17 10° NNE
Cosmos 1842 3.5 23:14:13 10° N 23:17:41 67° N 23:17:41 67° N
Cosmos 1908 Rocket 3.6 23:18:33 69° W 23:18:34 69° W 23:22:58 10° N
Cosmos 2344 4.5 23:11:28 10° NW 23:20:26 70° NE 23:32:54 10° SE
Helios 1B rocket 3.6 23:18:26 10° NNE 23:21:48 33° E 23:21:48 33° E
CZ-4 R/B 4.3 23:17:43 10° NNE 23:22:35 50° E 23:23:00 48° ESE
Cosmos 2227 Rocket 3.9 23:22:42 18° ESE 23:23:29 18° E 23:27:14 10° ENE
Meteor 1-21 4.2 23:18:15 10° NNW 23:24:06 87° E 23:25:21 57° SSE
SL-16 R/B 4.3 23:23:24 10° WNW 23:25:28 12° W 23:26:08 12° WSW
Lacrosse 5 4.1 23:23:48 10° W 23:24:41 12° W 23:24:41 12° W
Cosmos 2322 4.1 23:23:49 10° NW 23:29:10 44° WSW 23:29:31 44° WSW
COSMOS 2487 4.0 23:32:14 31° NW 23:32:14 31° NW 23:35:03 10° N
Nadezhda 4 Rocket 4.0 23:29:49 10° N 23:36:09 77° E 23:38:03 47° SSE
Cosmos 2219 Rocket 2.3 23:32:16 10° NW 23:37:48 54° WSW 23:38:19 52° SW
Cosmos 783 Rocket 4.4 23:36:29 10° NNW 23:41:45 77° WSW 23:42:23 67° SSW
Cosmos 1975 Rocket 3.2 23:38:02 10° NNW 23:42:25 61° W 23:42:25 61° W
Okean 2 Rocket 3.4 23:45:22 53° ESE 23:45:34 53° E 23:49:58 10° NNE
Cosmos 2034 Rocket 4.0 23:43:53 50° SSE 23:45:37 76° E 23:51:56 10° NNE
Cosmos 1503 Rocket 4.0 23:45:55 60° SW 23:46:55 81° WNW 23:52:20 10° NNE
Cosmos 1072 Rocket 4.5 23:46:51 50° SSW 23:48:28 73° W 23:54:36 10° N
Helios 1A 4.1 23:49:48 33° W 23:49:48 33° W 23:53:11 10° NNW
Landsat 4 3.9 23:45:47 10° NNE 23:49:12 67° NNW 23:49:12 67° NNW
Cosmos 1092 Rocket 4.2 23:44:08 10° N 23:50:22 63° ENE 23:52:45 38° SE
SL-16 R/B 3.5 23:46:15 19° SE 23:50:26 43° ENE 23:56:17 10° N
ERBS 4.0 23:49:10 10° NW 23:51:02 29° NW 23:51:02 29° NW
Cosmos 1300 Rocket 3.7 23:52:28 58° ESE 23:52:33 58° E 23:56:48 10° NNE
GEOS 3 Rocket 4.4 23:47:56 10° NE 23:52:54 36° ESE 23:53:18 36° SE
CZ-2D R/B 3.7 23:48:32 10° NE 23:53:02 25° E 23:54:54 21° ESE
SL-16 R/B 3.5 23:48:38 10° NNW 23:53:57 38° NE 23:59:12 10° ESE
Cosmos 1544 4.4 23:54:38 32° WNW 23:54:38 32° WNW 23:57:36 10° N
